Location: Batang Balui
(2.7000°N, 113.7833°E)
Time: 04:38:04
(UTC+00:00)

Spot 4 Rocket - Pass Details

Date: 08 February 2023
Orbit: 774 x 779 km, 98.8° (Epoch: 26 March)

Event Time Altitude Azimuth Distance (km) Brightness Sun altitude
Rises 20:44:31 0° 13° (NNE) 3,236 7.2 -28.3°
Enters shadow 20:46:04 - 13° (NNE) 2,607 6.7 -28.0°
Exits shadow 20:50:30 49° 14° (NNE) 985 4.4 -26.9°
Maximum altitude 20:51:55 89° 94° (E) 777 3.9 -26.6°
Drops below altitude 10° 20:57:02 10° 192° (SSW) 2,320 6.5 -25.3°
Sets 20:59:21 0° 192° (SSW) 3,250 7.3 -24.8°
